[[{"header":{"parameterUnit":"m.s-1","parameterCategory":1,"la1":30.2991,"la2":30.254,"lo1":-89.0895,"lo2":-89.0444,"dy":0.0017,"dx":0.0017,"nx":28,"ny":28,"refTime":"2023-08-26T09:00:00:Z","depth":0,"parameterNumber":2,"parameterNumberName":"U-component_of_WINDS"},"data":[0,0,0,0,0,0,0,0,0,0,0,0,0,0,0,0,0,0,0,0,0,0,0,0,0,0,0,0,0,0,0,0,0,0,0,0,0,0,0,0,0,0,0,0,0,0,0,0,0,0,0,0,0,0,0,0,0,0,1.847,1.8471,0,1.86,1.8601,1.8603,1.8594,1.8592,1.859,1.8588,1.8723,1.8728,1.8733,0,0,0,0,0,0,0,0,0,0,0,0,0,1.8213,1.8218,1.8469,1.8471,1.8473,1.86,1.8602,1.8603,1.8594,1.8592,1.859,1.8588,1.8721,1.8727,1.8734,0,0,0,0,0,0,0,0,0,0,0,0,0,1.8332,1.822,1.8469,1.8483,1.8486,1.8599,1.8602,1.8604,1.8595,1.8592,1.8589,1.8586,1.8719,1.8727,1.8735,1.8842,0,0,1.8759,1.8763,0,0,0,0,0,0,0,0,1.8326,1.8342,1.848,1.8483,1.8486,1.8578,1.8561,1.8684,1.8596,1.8554,1.8588,1.8585,1.8677,1.8688,1.8719,1.8849,1.8854,1.876,1.8765,1.8768,1.8771,0,0,0,0,0,0,0,1.8317,1.8336,1.8521,1.8482,1.8486,1.8484,1.8498,1.8584,1.863,1.8557,1.8557,1.8572,1.8678,1.8711,1.8722,1.8856,1.876,1.8767,1.8772,1.8775,1.9082,1.9085,0,0,0,0,0,0,1.8306,1.8329,1.8517,1.8525,1.8397,1.8491,1.8506,1.8551,1.8629,1.8638,1.8575,1.8571,1.8699,1.8713,1.8727,1.8858,1.8768,1.8776,1.8781,1.9079,1.9083,1.9086,0,0,0,0,0,0,1.83,1.8323,1.8512,1.8427,1.8451,1.8498,1.8549,1.8555,1.8589,1.8642,1.865,1.86,1.8697,1.8716,1.8814,1.8863,1.878,1.8787,1.9075,1.908,1.9084,1.9122,0,0,0,0,0,0,1.8293,1.8321,1.8362,1.8428,1.8456,1.8596,1.8552,1.856,1.8602,1.8599,1.8668,1.8677,1.8696,1.8802,1.8822,1.8873,1.8793,1.9071,1.9077,1.9083,1.9117,1.9128,1.9137,0,0,0,0,0,1.8284,1.8367,1.8364,1.8386,1.8508,1.8599,1.8615,1.8635,1.8606,1.8648,1.8683,1.8675,1.8855,1.8812,1.8835,1.8888,1.9068,1.9075,1.9082,1.9112,1.9126,1.9137,0,0,0,0,0,0,1.8305,1.8376,1.8373,1.848,1.8534,1.8597,1.865,1.8649,1.8711,1.8706,1.8729,1.8745,1.8844,1.8876,1.8827,1.8997,1.8957,1.897,1.8972,1.8985,1.8996,1.8985,1.88,0,0,0,0,0,1.8322,1.839,1.8448,1.8537,1.8564,1.8603,1.8643,1.8655,1.8711,1.8733,1.8775,1.883,1.8899,1.8944,1.9011,1.9122,1.9137,1.917,1.918,1.9188,1.9198,1.926,1.9276,1.9111,1.9111,1.9111,0,0,1.8358,1.8405,1.8447,1.8543,1.8585,1.8655,1.8622,1.8697,1.875,1.8745,1.884,1.8873,1.8936,1.9042,1.909,1.9072,1.9248,1.9198,1.9204,1.921,1.9269,1.9285,1.9299,1.9116,1.9115,1.9114,0,0,1.8459,1.8502,1.8581,1.8624,1.869,1.8715,1.8734,1.8799,1.882,1.8916,1.8914,1.8977,1.9096,1.9141,1.9179,1.9299,1.9295,1.9321,1.9374,1.9434,1.9447,1.9458,1.9502,1.9517,1.9331,1.9331,1.9331,0,1.8496,1.8601,1.8621,1.8698,1.874,1.874,1.882,1.8862,1.8945,1.8975,1.8953,1.9102,1.9145,1.9261,1.929,1.9321,1.9344,1.9312,1.9443,1.9455,1.9466,1.9508,1.9524,1.9333,1.9333,1.9333,1.9333,0,1.8643,1.8716,1.8772,1.8853,1.8902,1.898,1.9012,1.906,1.9067,1.9095,1.9194,1.9245,1.9322,1.935,1.9358,1.9468,1.9455,1.9438,1.9398,1.9484,1.9524,1.954,1.9337,1.9336,1.9336,1.9335,0,0,1.876,1.8852,1.8872,1.8909,1.8982,1.9039,1.9117,1.9193,1.9233,1.9291,1.9357,1.9458,1.9443,1.9487,1.95,1.9553,1.9645,1.953,1.9532,1.955,1.977,1.9782,1.98,1.9643,1.9646,1.9649,1.9765,0,1.8868,1.9007,1.9028,1.915,1.9218,1.922,1.9288,1.934,1.9369,1.9431,1.9463,1.9534,1.9509,1.9535,1.9588,1.9623,1.969,1.9615,1.9705,1.9708,1.9689,1.9821,1.9834,1.9941,1.978,1.9783,1.9785,0,1.9013,1.9075,1.9204,1.9268,1.9298,1.9359,1.943,1.949,1.9549,1.9566,1.9616,1.9623,1.9705,1.9663,1.9776,1.9725,1.9763,1.9787,1.9791,1.98,1.9752,1.9833,1.9976,1.9992,1.9809,1.9807,1.9806,0,1.9086,1.9202,1.9294,1.9326,1.9403,1.9446,1.948,1.9537,1.9581,1.9644,1.9673,1.9744,1.9783,1.9839,1.9866,1.9832,1.9978,1.9937,1.9995,1.9994,2.0025,2.0023,2.0175,2.005,2.005,2.005,2.0049,0,1.9205,1.9283,1.9328,1.9384,1.9473,1.9497,1.9585,1.9618,1.9669,1.9732,1.9738,1.9797,1.9829,1.9894,1.9915,2.0007,2.0024,2.0041,2.0046,2.004,2.0038,2.0066,2.0059,2.0054,2.0053,2.0052,2.0051,0,1.93,1.9333,1.9434,1.9499,1.9517,1.958,1.9635,1.9691,1.972,1.98,1.982,1.9866,1.9942,1.9974,2.0068,2.0083,2.0188,2.0187,2.0167,2.0169,2.0225,2.0219,2.04,2.0426,2.0284,2.0285,2.0286,0,1.9374,1.9434,1.9506,1.9549,1.9585,1.9654,1.9699,1.9726,1.9773,1.9846,1.9893,1.997,2.0032,2.0155,2.0196,2.0269,2.027,2.0328,2.028,2.0274,2.0271,2.0267,2.0273,2.0337,2.0338,2.0339,2.034,0,1.9501,1.9514,1.9579,1.9651,1.9705,1.9762,1.9818,1.9853,1.9889,1.9942,2.002,2.0068,2.0165,2.0241,2.0316,2.0352,2.0353,2.0355,2.0372,2.0367,2.0354,2.0362,2.0191,2.0351,2.035,2.0349,2.0348,2.0348,1.9588,1.9642,1.9701,1.9774,1.9819,1.9872,1.9927,1.9963,2.0029,2.0109,2.0121,2.0205,2.0264,2.0365,2.0404,2.047,2.0456,2.048,2.0487,2.0492,2.0496,2.0343,2.0484,2.0484,2.0484,2.0483,2.0483,0,1.9715,1.9753,1.982,1.9899,1.9956,1.9952,2.0014,2.0062,2.0136,2.0191,2.0253,2.0343,2.0418,2.0465,2.0541,2.0585,2.0587,2.0604,2.0601,2.0609,2.0505,2.0482,2.0601,2.0601,2.0601,2.06,2.06,2.06,1.9788,1.988,1.9901,2.0015,2.0053,2.0135,2.0171,2.022,2.0265,2.0365,2.0427,2.0458,2.051,2.059,2.0658,2.067,2.0698,2.0715,2.0727,2.0628,2.0616,2.0605,2.0584,2.0721,2.0721,2.0825,2.0826,2.0827]},{"header":{"parameterUnit":"m.s-1","parameterCategory":1,"la1":30.2991,"la2":30.254,"lo1":-89.0895,"lo2":-89.0444,"dy":0.0017,"dx":0.0017,"nx":28,"ny":28,"refTime":"2023-08-26T09:00:00:Z","depth":0,"parameterNumber":3,"parameterNumberName":"V-component_of_WINDS"},"data":[0,0,0,0,0,0,0,0,0,0,0,0,0,0,0,0,0,0,0,0,0,0,0,0,0,0,0,0,0,0,0,0,0,0,0,0,0,0,0,0,0,0,0,0,0,0,0,0,0,0,0,0,0,0,0,0,0,0,-0.3109,-0.3109,0,-0.3082,-0.3081,-0.3081,-0.3098,-0.3099,-0.3099,-0.31,-0.3074,-0.3073,-0.3072,0,0,0,0,0,0,0,0,0,0,0,0,0,-0.3179,-0.3178,-0.3109,-0.3109,-0.3109,-0.3082,-0.3081,-0.3081,-0.3098,-0.3099,-0.31,-0.31,-0.3075,-0.3073,-0.3071,0,0,0,0,0,0,0,0,0,0,0,0,0,-0.315,-0.3177,-0.3109,-0.3114,-0.3114,-0.3082,-0.3081,-0.3081,-0.3097,-0.3099,-0.31,-0.3101,-0.3075,-0.3073,-0.3071,-0.3034,0,0,-0.3065,-0.3064,0,0,0,0,0,0,0,0,-0.3151,-0.3147,-0.3113,-0.3113,-0.3113,-0.3094,-0.3097,-0.3066,-0.3097,-0.3104,-0.31,-0.3101,-0.308,-0.3078,-0.307,-0.3033,-0.3032,-0.3065,-0.3063,-0.3062,-0.3062,0,0,0,0,0,0,0,-0.3153,-0.3149,-0.3099,-0.3113,-0.3113,-0.3118,-0.3115,-0.3091,-0.3086,-0.3103,-0.3104,-0.3101,-0.308,-0.3072,-0.307,-0.3032,-0.3065,-0.3063,-0.3061,-0.3061,-0.2963,-0.2962,0,0,0,0,0,0,-0.3155,-0.315,-0.3099,-0.3098,-0.3136,-0.3116,-0.3112,-0.3099,-0.3086,-0.3085,-0.31,-0.3102,-0.3075,-0.3072,-0.3069,-0.3024,-0.3062,-0.306,-0.3059,-0.2964,-0.2963,-0.2961,0,0,0,0,0,0,-0.3156,-0.315,-0.3101,-0.3124,-0.3118,-0.3113,-0.3098,-0.3098,-0.309,-0.3083,-0.3083,-0.3092,-0.3076,-0.3072,-0.3043,-0.3023,-0.3059,-0.3057,-0.2966,-0.2964,-0.2962,-0.2934,0,0,0,0,0,0,-0.3158,-0.315,-0.3136,-0.3124,-0.3117,-0.3074,-0.3097,-0.3097,-0.3086,-0.3088,-0.3076,-0.3075,-0.3077,-0.3046,-0.304,-0.3021,-0.3056,-0.2967,-0.2965,-0.2962,-0.2937,-0.2931,-0.2927,0,0,0,0,0,-0.3161,-0.313,-0.3135,-0.3129,-0.3098,-0.3073,-0.3069,-0.307,-0.3084,-0.307,-0.3066,-0.3075,-0.3027,-0.3042,-0.3037,-0.3016,-0.2969,-0.2966,-0.2963,-0.2939,-0.2932,-0.2927,0,0,0,0,0,0,-0.3141,-0.3128,-0.3134,-0.3098,-0.3086,-0.3076,-0.3057,-0.3064,-0.3048,-0.3051,-0.3055,-0.3052,-0.3021,-0.3016,-0.3034,-0.298,-0.3,-0.2995,-0.2984,-0.2977,-0.2973,-0.2974,-0.3054,0,0,0,0,0,-0.3132,-0.3112,-0.3102,-0.3072,-0.3066,-0.3062,-0.3051,-0.3054,-0.3042,-0.3037,-0.3031,-0.302,-0.3002,-0.299,-0.2973,-0.2937,-0.2934,-0.292,-0.2915,-0.2911,-0.2907,-0.2886,-0.288,-0.2951,-0.2951,-0.2951,0,0,-0.3115,-0.3105,-0.3092,-0.3068,-0.3059,-0.3038,-0.3058,-0.3035,-0.302,-0.3034,-0.3005,-0.3,-0.2988,-0.2955,-0.294,-0.295,-0.2887,-0.2907,-0.2904,-0.2902,-0.2883,-0.2876,-0.287,-0.2949,-0.295,-0.295,0,0,-0.3071,-0.3062,-0.3035,-0.3025,-0.3011,-0.3009,-0.3003,-0.2991,-0.2988,-0.2959,-0.2969,-0.2951,-0.2921,-0.2911,-0.2902,-0.2855,-0.2863,-0.285,-0.2823,-0.2804,-0.2798,-0.2793,-0.2775,-0.2768,-0.2846,-0.2846,-0.2846,0,-0.3051,-0.3018,-0.3021,-0.2996,-0.2985,-0.2996,-0.2969,-0.296,-0.2942,-0.2934,-0.2945,-0.2906,-0.2899,-0.2863,-0.2851,-0.2844,-0.2837,-0.285,-0.2798,-0.2793,-0.2789,-0.2771,-0.2765,-0.2844,-0.2844,-0.2845,-0.2845,0,-0.2994,-0.2971,-0.2952,-0.2932,-0.2919,-0.2893,-0.2892,-0.2879,-0.2882,-0.288,-0.285,-0.2842,-0.2823,-0.2815,-0.2819,-0.278,-0.2786,-0.2798,-0.2818,-0.278,-0.2764,-0.2757,-0.2842,-0.2842,-0.2843,-0.2843,0,0,-0.2936,-0.2917,-0.291,-0.2901,-0.2886,-0.2869,-0.2844,-0.2825,-0.2813,-0.28,-0.2779,-0.2753,-0.2764,-0.2754,-0.2757,-0.2739,-0.2701,-0.2753,-0.2753,-0.2743,-0.2656,-0.2645,-0.2638,-0.2707,-0.2706,-0.2705,-0.2656,0,-0.289,-0.2845,-0.2846,-0.2805,-0.2784,-0.2795,-0.2773,-0.2762,-0.2759,-0.2742,-0.2739,-0.2719,-0.2736,-0.2729,-0.2713,-0.2709,-0.2683,-0.2713,-0.2687,-0.2686,-0.2688,-0.2629,-0.2619,-0.2573,-0.265,-0.2649,-0.2648,0,-0.283,-0.2814,-0.277,-0.2757,-0.2748,-0.2729,-0.2711,-0.2694,-0.2682,-0.2681,-0.2669,-0.2675,-0.2651,-0.2673,-0.2639,-0.2659,-0.2649,-0.2645,-0.2644,-0.264,-0.2664,-0.2622,-0.2559,-0.2551,-0.2639,-0.2639,-0.264,0,-0.279,-0.2758,-0.2727,-0.2719,-0.2704,-0.2689,-0.2683,-0.2672,-0.266,-0.2645,-0.2637,-0.262,-0.261,-0.2597,-0.2598,-0.2614,-0.2563,-0.2586,-0.2561,-0.2561,-0.2549,-0.2549,-0.248,-0.2545,-0.2545,-0.2545,-0.2546,0,-0.2738,-0.271,-0.2708,-0.2689,-0.2658,-0.2661,-0.2631,-0.2626,-0.2616,-0.2596,-0.2606,-0.2587,-0.2591,-0.2573,-0.2574,-0.2545,-0.2541,-0.2539,-0.254,-0.2537,-0.2537,-0.253,-0.2532,-0.2544,-0.2544,-0.2544,-0.2545,0,-0.2687,-0.2685,-0.2652,-0.264,-0.2636,-0.2614,-0.2605,-0.2587,-0.2585,-0.256,-0.2554,-0.2551,-0.253,-0.253,-0.2507,-0.2508,-0.2472,-0.2477,-0.2475,-0.2475,-0.2451,-0.2452,-0.2373,-0.2362,-0.2436,-0.2435,-0.2434,0,-0.2653,-0.2632,-0.2617,-0.2604,-0.2596,-0.2575,-0.2563,-0.2565,-0.2552,-0.2536,-0.252,-0.25,-0.2483,-0.245,-0.2446,-0.2428,-0.2431,-0.2405,-0.2429,-0.2427,-0.2429,-0.2429,-0.2427,-0.24,-0.2399,-0.2398,-0.2398,0,-0.2592,-0.2592,-0.2573,-0.2553,-0.2537,-0.2522,-0.2509,-0.2498,-0.2499,-0.2483,-0.2461,-0.2449,-0.2424,-0.2404,-0.2386,-0.2381,-0.2389,-0.239,-0.2384,-0.238,-0.2379,-0.2377,-0.246,-0.2392,-0.2392,-0.2393,-0.2393,-0.2393,-0.2547,-0.2528,-0.2515,-0.2493,-0.2483,-0.247,-0.2452,-0.2447,-0.2428,-0.2407,-0.2411,-0.2386,-0.2374,-0.2352,-0.2344,-0.2325,-0.2335,-0.2325,-0.2323,-0.232,-0.2316,-0.2384,-0.2323,-0.2323,-0.2323,-0.2323,-0.2323,0,-0.2485,-0.2477,-0.2457,-0.2436,-0.242,-0.2429,-0.2414,-0.2399,-0.2377,-0.2365,-0.2348,-0.2323,-0.2303,-0.2298,-0.2279,-0.2265,-0.2268,-0.2259,-0.2259,-0.2258,-0.231,-0.2316,-0.2257,-0.2257,-0.2257,-0.2257,-0.2257,-0.2257,-0.2451,-0.2418,-0.2417,-0.238,-0.2372,-0.2347,-0.2337,-0.2325,-0.2315,-0.2286,-0.2269,-0.2266,-0.2256,-0.2237,-0.2219,-0.2218,-0.221,-0.2199,-0.22,-0.2248,-0.2254,-0.2261,-0.2267,-0.2198,-0.2198,-0.2149,-0.2149,-0.2148]}]]